Location: Silverdale
(47.6506°N, 122.6941°W)
Time: 14:56:01
(UTC+00:00)

Vanguard 2 Rocket - All Passes

Search period start: 26 September 2022 00:00
Search period end: 06 October 2022 00:00
Orbit: 553 x 3323 km, 32.9° (Epoch: 25 September)

Date Brightness Start Highest point End Pass type
(mag) Time Alt. Az. Time Alt. Az. Time Alt. Az.
26 Sep - 08:38:23 10° SSW 08:43:22 16° S 08:47:13 10° SE night (unlit)
26 Sep - 10:51:42 10° SW 10:55:50 17° S 10:59:03 10° SE visible
27 Sep - 07:37:53 10° SSW 07:43:16 15° SSE 07:47:28 10° SE night (unlit)
27 Sep - 09:50:39 10° SW 09:56:08 20° S 10:00:08 10° SE night (unlit)
27 Sep - 12:05:37 10° SW 12:08:06 13° SSW 12:10:16 10° S visible
28 Sep - 06:37:52 10° S 06:42:57 14° SSE 06:47:06 10° SE night (unlit)
28 Sep - 08:49:28 10° SW 08:56:15 21° S 09:01:01 10° SE night (unlit)
28 Sep - 11:04:11 10° SW 11:08:36 18° SSW 11:11:59 10° SSE visible
29 Sep - 05:39:08 10° SSE 05:42:26 11° SSE 05:45:22 10° SE visible
29 Sep - 07:48:16 10° SSW 07:56:08 21° S 08:01:38 10° ESE night (unlit)
29 Sep - 10:02:46 10° SW 10:08:56 23° S 10:13:17 10° SE night (unlit)
29 Sep - 12:19:23 10° SW 12:20:41 11° SSW 12:21:55 10° SSW visible
30 Sep - 06:47:12 10° SSW 06:55:47 20° SSE 07:01:55 10° ESE visible
30 Sep - 09:01:12 10° SW 09:09:05 26° S 09:14:19 10° SE night (unlit)
30 Sep - 11:16:59 10° WSW 11:21:15 17° SSW 11:24:33 10° SSE visible
01 Oct - 05:46:32 10° SSW 05:55:11 18° SSE 06:01:42 10° ESE visible
01 Oct - 07:59:31 10° SW 08:08:57 27° S 08:15:09 10° ESE night (unlit)
01 Oct - 10:15:12 10° WSW 10:21:39 23° SSW 10:26:08 10° SE night (unlit)
02 Oct - 04:46:44 10° S 04:54:24 15° SSE 05:00:38 10° ESE visible
02 Oct - 06:57:52 10° SW 07:08:35 27° S 07:15:40 10° ESE visible
02 Oct - 09:13:19 10° WSW 09:21:50 28° S 09:27:22 10° SE night (unlit)
02 Oct - 11:30:12 10° WSW 11:33:46 14° SSW 11:36:40 10° S visible
03 Oct - 03:48:56 10° SSE 03:53:30 12° SE 03:57:37 10° SE visible
03 Oct - 05:56:26 10° SSW 06:07:55 25° SSE 06:15:52 10° ESE visible
03 Oct - 08:11:17 10° SW 08:21:44 31° S 08:28:19 10° ESE night (unlit)
03 Oct - 10:27:53 10° WSW 10:34:15 22° SSW 10:38:44 10° SSE night (unlit)
04 Oct - 04:55:29 10° SSW 05:07:02 22° SSE 05:15:33 10° ESE visible
04 Oct - 07:09:13 10° SW 07:21:19 33° S 07:29:00 10° ESE visible
04 Oct - 09:25:42 10° WSW 09:34:30 28° SSW 09:40:11 10° SE night (unlit)
04 Oct - 11:44:28 10° SW 11:46:06 11° SW 11:47:36 10° SSW visible
05 Oct - 03:55:20 10° S 04:05:59 19° SSE 04:14:29 10° ESE visible
05 Oct - 06:07:16 10° SW 06:20:37 32° SSE 06:29:24 10° ESE visible
05 Oct - 08:23:23 10° WSW 08:34:25 34° S 08:41:17 10° SE night (unlit)
05 Oct - 10:40:53 10° WSW 10:46:41 19° SSW 10:50:57 10° SSE night (unlit)
